Weather History for Ravenna, OH

Change the Weather History Date:

Friday, February 15, 2013

  Actual Average (KCAK) Record (KCAK)
Temperature  
Mean Temperature 29 °F 29 °F  
Max Temperature 35 °F 37 °F 66 °F (1954)
Min Temperature 23 °F 21 °F -8 °F (1943)
Degree Days  
Heating Degree Days 36 36  
Month to date heating degree days 560  
Since 1 July heating degree days 4096  
Cooling Degree Days 0 0  
Month to date cooling degree days 0  
Year to date cooling degree days 0  
Moisture  
Dew Point 23 °F    
Average Humidity 74    
Maximum Humidity 89    
Minimum Humidity 62    
Precipitation  
Precipitation 0.00 in 0.09 in 1.66 in (1990)
Month to date precipitation 1.23  
Year to date precipitation 3.84  
Snow  
Snow 0.00 in 0.40 in - ()
Month to date snowfall 5.5  
Since 1 July snowfall 31.5  
Snow Depth -    
Sea Level Pressure  
Sea Level Pressure 29.98 in    
Wind  
Wind Speed 9 mph (West)    
Max Wind Speed 17 mph    
Max Gust Speed 26 mph    
Visibility 10 miles    
Events Snow    
T = Trace of Precipitation, MM = Missing Value Source: NWS Daily Summary

Daily Weather History Graph

Daily Weather History Graph

Search for Another Location

Airport:

Trip Planner

Search our weather history database for the weather conditions in past years. The results will help you decide how hot, cold, wet, or windy it might be!

Date:

Astronomy

Feb. 15, 2013 Rise Set
Actual Time 7:19 AM EST 5:59 PM EST
Civil Twilight 6:51 AM EST 6:27 PM EST
Nautical Twilight 6:18 AM EST 7:00 PM EST
Astronomical Twilight 5:46 AM EST 7:32 PM EST
Moon 9:50 AM EST (2/15) No Moon Set
Length of Visible Light 11h 36m
Length of Day
10h 40m
Waxing Crescent, 30% of the Moon is Illuminated
Feb 15
Waxing Crescent
Feb 17
First Quarter
Feb 25
Full
Mar 4
Last Quarter
Mar 11
New

Hourly Weather History & Observations

Time (EST) Temp. Windchill Dew Point Humidity Pressure Visibility Wind Dir Wind Speed Gust Speed Precip Events Conditions
12:16 AM 35.6 °F 26.2 °F 25.9 °F 68% 29.88 in 10.0 mi West 15.0 mph 19.6 mph N/A   Overcast
12:35 AM 35.6 °F 27.5 °F 25.7 °F 67% 29.88 in 10.0 mi West 11.5 mph 21.9 mph N/A   Overcast
12:55 AM 35.6 °F 27.1 °F 26.2 °F 69% 29.87 in 10.0 mi West 12.7 mph 21.9 mph N/A   Overcast
1:16 AM 35.2 °F 25.8 °F 25.5 °F 68% 29.88 in 10.0 mi West 15.0 mph 24.2 mph N/A   Overcast
1:35 AM 35.1 °F 24.8 °F 24.8 °F 66% 29.88 in 10.0 mi West 17.3 mph 26.5 mph N/A   Overcast
1:55 AM 34.9 °F 26.2 °F 25.2 °F 68% 29.88 in 10.0 mi West 12.7 mph 17.3 mph N/A   Overcast
2:16 AM 34.7 °F 25.5 °F 23.7 °F 64% 29.89 in 10.0 mi West 13.8 mph 26.5 mph N/A   Overcast
2:35 AM 33.8 °F 24.8 °F 23.2 °F 65% 29.89 in 10.0 mi West 12.7 mph 17.3 mph N/A   Mostly Cloudy
2:56 AM 33.3 °F 26.4 °F 23.5 °F 68% 29.90 in 10.0 mi West 8.1 mph - N/A   Scattered Clouds
3:16 AM 32.4 °F 25.3 °F 23.9 °F 71% 29.90 in 10.0 mi West 8.1 mph - N/A   Clear
3:35 AM 32.0 °F 25.6 °F 23.5 °F 71% 29.90 in 10.0 mi West 6.9 mph - N/A   Clear
3:55 AM 32.0 °F 26.4 °F 23.5 °F 71% 29.90 in 10.0 mi WSW 5.8 mph - N/A   Clear
4:16 AM 32.0 °F 25.6 °F 23.7 °F 71% 29.91 in 10.0 mi West 6.9 mph - N/A   Clear
4:35 AM 31.6 °F 26.0 °F 23.4 °F 71% 29.91 in 10.0 mi West 5.8 mph - N/A   Clear
4:55 AM 31.1 °F 24.5 °F 23.0 °F 72% 29.92 in 10.0 mi West 6.9 mph - N/A   Clear
5:16 AM 31.1 °F 24.5 °F 23.0 °F 72% 29.92 in 10.0 mi West 6.9 mph - N/A   Clear
5:35 AM 30.7 °F 24.1 °F 22.6 °F 72% 29.93 in 10.0 mi WSW 6.9 mph - N/A   Clear
5:56 AM 30.7 °F 24.1 °F 22.1 °F 70% 29.94 in 10.0 mi WSW 6.9 mph - N/A   Clear
6:16 AM 31.1 °F 24.5 °F 22.1 °F 69% 29.95 in 10.0 mi WSW 6.9 mph - N/A   Clear
6:35 AM 31.1 °F 23.7 °F 21.9 °F 69% 29.95 in 10.0 mi WSW 8.1 mph - N/A   Clear
6:55 AM 30.9 °F 23.5 °F 21.9 °F 69% 29.95 in 10.0 mi WSW 8.1 mph - N/A   Scattered Clouds
7:16 AM 30.9 °F 24.3 °F 22.1 °F 70% 29.96 in 10.0 mi WSW 6.9 mph - N/A   Scattered Clouds
7:35 AM 30.9 °F 22.8 °F 22.1 °F 70% 29.96 in 10.0 mi WSW 9.2 mph - N/A   Scattered Clouds
7:55 AM 30.9 °F 22.8 °F 22.1 °F 70% 29.98 in 10.0 mi West 9.2 mph - N/A   Scattered Clouds
8:16 AM 31.1 °F 23.7 °F 22.5 °F 70% 29.98 in 10.0 mi WSW 8.1 mph - N/A   Overcast
8:35 AM 32.0 °F 24.2 °F 23.0 °F 69% 29.99 in 10.0 mi WSW 9.2 mph - N/A   Overcast
8:56 AM 31.8 °F 23.9 °F 23.0 °F 70% 30.00 in 10.0 mi WSW 9.2 mph - N/A   Overcast
9:16 AM 32.0 °F 22.5 °F 23.0 °F 69% 30.00 in 10.0 mi WSW 12.7 mph - N/A   Overcast
9:35 AM 32.0 °F 24.8 °F 23.4 °F 70% 30.00 in 10.0 mi WSW 8.1 mph - N/A   Overcast
9:56 AM 32.0 °F 24.2 °F 23.5 °F 71% 30.00 in 10.0 mi West 9.2 mph - N/A   Mostly Cloudy
10:16 AM 32.4 °F 26.0 °F 23.9 °F 71% 30.00 in 10.0 mi WSW 6.9 mph - N/A   Scattered Clouds
10:35 AM 32.9 °F 25.9 °F 23.7 °F 69% 30.00 in 10.0 mi West 8.1 mph - N/A   Scattered Clouds
10:55 AM 33.1 °F 25.5 °F 23.4 °F 67% 30.00 in 10.0 mi West 9.2 mph - N/A   Mostly Cloudy
11:16 AM 33.6 °F 26.2 °F 23.5 °F 67% 30.01 in 10.0 mi West 9.2 mph - N/A   Overcast
11:35 AM 33.8 °F 25.8 °F 22.8 °F 64% 30.00 in 10.0 mi WSW 10.4 mph - N/A   Overcast
11:55 AM 34.2 °F 28.2 °F 23.0 °F 64% 30.00 in 10.0 mi West 6.9 mph - N/A   Overcast
12:16 PM 34.3 °F 28.4 °F 22.5 °F 62% 30.00 in 10.0 mi WSW 6.9 mph - N/A   Overcast
12:56 PM 34.0 °F 26.6 °F 23.0 °F 64% 29.99 in 10.0 mi West 9.2 mph - N/A   Overcast
1:16 PM 32.9 °F 26.7 °F 26.2 °F 76% 29.99 in 10.0 mi NNW 6.9 mph - N/A   Overcast
1:35 PM 32.7 °F 27.3 °F 26.8 °F 79% 29.98 in 10.0 mi NW 5.8 mph - N/A   Overcast
1:56 PM 33.3 °F 27.1 °F 26.8 °F 77% 29.98 in 10.0 mi NNW 6.9 mph - N/A   Overcast
2:16 PM 33.1 °F 27.7 °F 26.4 °F 77% 29.98 in 10.0 mi NW 5.8 mph - N/A Snow Light Snow
2:35 PM 32.5 °F 26.2 °F 27.7 °F 82% 29.98 in 5.0 mi WNW 6.9 mph - N/A Snow Light Snow
2:56 PM 33.6 °F 28.4 °F 26.4 °F 75% 29.98 in 10.0 mi WNW 5.8 mph - N/A   Mostly Cloudy
3:16 PM 32.5 °F 27.1 °F 25.5 °F 75% 29.98 in 7.0 mi NW 5.8 mph - N/A Snow Light Snow
3:35 PM 32.0 °F 24.2 °F 26.1 °F 79% 29.99 in 10.0 mi NW 9.2 mph - N/A Snow Light Snow
3:56 PM 32.0 °F 26.4 °F 23.5 °F 71% 29.99 in 10.0 mi WNW 5.8 mph - N/A Snow Light Snow
4:16 PM 31.8 °F 25.4 °F 23.9 °F 73% 30.00 in 10.0 mi NW 6.9 mph - N/A Snow Light Snow
4:35 PM 31.1 °F 23.7 °F 23.5 °F 74% 30.00 in 10.0 mi WNW 8.1 mph - N/A   Overcast
4:55 PM 30.2 °F 21.9 °F 23.7 °F 77% 30.00 in 10.0 mi NW 9.2 mph - N/A   Overcast
5:16 PM 29.1 °F 21.3 °F 22.3 °F 76% 30.02 in 10.0 mi NW 8.1 mph - N/A   Overcast
5:35 PM 28.6 °F 19.9 °F 21.9 °F 76% 30.03 in 10.0 mi NW 9.2 mph - N/A   Overcast
5:55 PM 27.9 °F 17.3 °F 21.6 °F 77% 30.04 in 10.0 mi NW 12.7 mph 18.4 mph N/A   Overcast
6:16 PM 27.0 °F 18.0 °F 20.3 °F 76% 30.04 in 10.0 mi NW 9.2 mph - N/A   Overcast
6:35 PM 26.4 °F 18.9 °F 20.3 °F 78% 30.04 in 10.0 mi NW 6.9 mph - N/A   Overcast
6:56 PM 25.7 °F 18.0 °F 19.9 °F 79% 30.05 in 10.0 mi NW 6.9 mph - N/A   Mostly Cloudy
7:16 PM 24.8 °F - 19.8 °F 81% 30.05 in 10.0 mi Calm Calm - N/A   Clear
7:35 PM 25.2 °F 18.3 °F 20.3 °F 82% 30.05 in 10.0 mi NW 5.8 mph - N/A   Mostly Cloudy
7:56 PM 25.0 °F 20.7 °F 20.1 °F 82% 30.05 in 10.0 mi NW 3.5 mph - N/A   Overcast
8:15 PM 25.2 °F 20.9 °F 20.3 °F 82% 30.06 in 10.0 mi NW 3.5 mph - N/A   Overcast
8:35 PM 24.8 °F - 20.3 °F 83% 30.06 in 10.0 mi Calm Calm - N/A   Overcast
8:55 PM 24.3 °F 19.9 °F 19.9 °F 84% 30.06 in 10.0 mi West 3.5 mph - N/A   Scattered Clouds
9:15 PM 24.4 °F - 20.3 °F 84% 30.06 in 10.0 mi Calm Calm - N/A   Mostly Cloudy
9:35 PM 24.4 °F 20.1 °F 20.8 °F 86% 30.06 in 10.0 mi West 3.5 mph - N/A   Overcast
9:56 PM 24.4 °F - 20.8 °F 86% 30.06 in 10.0 mi Calm Calm - N/A   Overcast
10:16 PM 23.9 °F - 20.5 °F 87% 30.06 in 10.0 mi Calm Calm - N/A   Overcast
10:35 PM 23.9 °F - 21.2 °F 89% 30.06 in 10.0 mi Calm Calm - N/A Snow Light Snow
10:56 PM 24.6 °F - 21.7 °F 89% 30.06 in 7.0 mi Calm Calm - N/A Snow Light Snow
11:16 PM 24.6 °F - 21.0 °F 86% 30.05 in 7.0 mi Calm Calm - N/A Snow Light Snow
11:35 PM 24.8 °F 20.5 °F 21.2 °F 86% 30.05 in 10.0 mi West 3.5 mph - N/A Snow Light Snow
11:56 PM 24.8 °F - 21.6 °F 87% 30.05 in 10.0 mi Calm Calm - N/A   Overcast